User: anonymous   Login
Location: Simi Valley
(34.2690°N, 118.7810°W)
Time: 16:39:25
(UTC-07:00)
Language:

SAR-Lupe-1 - Orbit

View from above orbital plane
View from above orbital plane
View from above satellite
View from above satellite

Ground track
Ground track

The orbit data is extracted from the following two-line orbital elements,

1 29658U 06060A   14209.02891054 0.00000000  00000-0  00000-0 0    00
2 29658  98.1239 144.9471 0003000 159.9126 200.0872 15.27460281    05
Epoch (UTC): 28 July 2014 00:41:37
Eccentricity: 0.0003000
inclination: 98.1239°
perigee height: 481 km
apogee height: 485 km
right ascension of ascending node: 144.9471°
argument of perigee: 159.9126°
revolutions per day: 15.27460281
mean anomaly at epoch: 200.0872°
orbit number at epoch: 0

The dashed part of the orbit path shows where the satellite is in the earth's shadow,  

DLR